Location: Brunembert
(50.7122°N, 1.8935°E)
Time: 10:42:45
(UTC+00:00)

Cosmos 2315 Rocket - Pass Details

Date: 22 April 2021
Orbit: 967 x 1001 km, 82.9° (Epoch: 05 May)

Event Time Altitude Azimuth Distance (km) Brightness Sun altitude
Exits shadow 23:16:01 57° 213° (SSW) 1,160 4.1 -26.3°
Maximum altitude 23:17:21 77° 281° (W) 1,027 4.0 -26.3°
Drops below altitude 10° 23:23:46 10° 8° (N) 2,781 7.3 -26.5°
Sets 23:26:19 0° 10° (N) 3,737 8.2 -26.5°
